Flight Track Log - Related Links

Times and Time Zones

All times are in EST time to prevent confusion due to time zone crossing. See the N1944E flight status page for this flight to view local times or setup timezone preferences in your user account.

Time Position Orientation Groundspeed Altitude Reporting Facility
EST Latitude Longitude Course Direction KTS MPH feet Rate Location/Type
Sun 16:28:20 43.5761 -110.7533 279° West 150 173 7,100  Level Salt Lake Center
Sun 16:29:00 43.3370 -110.4574 291° West  Level Estimated
Sun 16:29:21 43.5431 -110.7700 200° South 127 146 8,300  Level Salt Lake Center
Sun 16:30:00 43.3461 -110.5339 279° West  Level FlightAware Approximate
Sun 16:30:23 43.5097 -110.7872 201° Southwest 127 146 9,200  Level Salt Lake Center
Sun 16:31:00 43.3553 -110.6104 279° West  Level FlightAware Approximate
Sun 16:31:25 43.4692 -110.7750 168° South 146 168 10,100  Level Salt Lake Center
Sun 16:32:00 43.3643 -110.6870 279° West  Level FlightAware Approximate
Sun 16:32:26 43.4364 -110.7336 137° Southeast 160 184 11,100  Level Salt Lake Center
Sun 16:33:00 43.3733 -110.7636 279° West  Level FlightAware Approximate
Sun 16:33:28 43.3981 -110.6942 143° Southeast 166 191 12,000  Level Salt Lake Center
Sun 16:34:29 43.3575 -110.6533 144° Southeast 177 204 13,000 984 Climbing Salt Lake Center
Sun 16:35:30 43.3089 -110.5994 141° Southeast 187 215 14,000 780 Climbing Salt Lake Center
Sun 16:36:32 43.2658 -110.5550 143° Southeast 193 222 14,600 774 Climbing Salt Lake Center
Sun 16:37:34 43.2197 -110.5083 144° Southeast 198 228 15,600 1,024 Climbing Salt Lake Center
Sun 16:38:35 43.1783 -110.4650 143° Southeast 198 228 16,700 689 Climbing Salt Lake Center
Sun 16:39:36 43.1297 -110.4094 140° Southeast 203 234 17,000 146 Climbing Salt Lake Center
Sun 16:40:38 43.0828 -110.3633 144° Southeast 214 246 17,000  Level Salt Lake Center
Sun 16:41:39 43.0311 -110.3125 144° Southeast 229 264 17,000  Level Salt Lake Center
Sun 16:42:41 42.9764 -110.2486 139° Southeast 232 267 17,000  Level Salt Lake Center
Sun 16:43:42 42.9286 -110.1964 141° Southeast 231 266 17,000 -49 Level Salt Lake Center
Sun 16:44:44 42.8714 -110.1358 142° Southeast 233 268 16,900  Descending Salt Lake Center
Sun 16:45:46 42.8233 -110.0836 141° Southeast 232 267 17,000 49 Climbing Salt Lake Center
Sun 16:46:47 42.7736 -110.0336 144° Southeast 232 267 17,000  Level Salt Lake Center
Sun 16:47:49 42.7169 -109.9728 142° Southeast 233 268 17,000  Level Salt Lake Center
Sun 16:48:50 42.6683 -109.9219 142° Southeast 232 267 17,000 -49 Level Salt Lake Center
Sun 16:49:52 42.6119 -109.8614 142° Southeast 232 267 16,900  Descending Salt Lake Center
Sun 16:50:53 42.5636 -109.8097 142° Southeast 230 265 17,000 49 Climbing Salt Lake Center
Sun 16:51:55 42.5053 -109.7522 144° Southeast 231 266 17,000  Level Salt Lake Center
Sun 16:52:56 42.4564 -109.6997 142° Southeast 233 268 17,000  Level Salt Lake Center
Sun 16:53:58 42.4072 -109.6472 142° Southeast 234 269 17,000  Level Salt Lake Center
Sun 16:54:59 42.3500 -109.5889 143° Southeast 233 268 17,000  Level Salt Lake Center
Sun 16:56:01 42.3008 -109.5367 142° Southeast 233 268 17,000  Level Salt Lake Center
Sun 16:57:02 42.2431 -109.4778 143° Southeast 233 268 17,000  Level Salt Lake Center
Sun 16:58:04 42.1950 -109.4278 142° Southeast 230 265 17,000  Level Salt Lake Center
Sun 16:59:05 42.1478 -109.3783 142° Southeast 227 261 17,000  Level Salt Lake Center
Sun 17:00:07 42.0925 -109.3214 143° Southeast 224 258 17,000  Level Salt Lake Center
Sun 17:01:09 42.0453 -109.2733 143° Southeast 224 258 17,000  Level Salt Lake Center
Sun 17:02:10 41.9892 -109.2164 143° Southeast 225 259 17,000  Level Salt Lake Center
Sun 17:03:12 41.9408 -109.1664 142° Southeast 227 261 17,000  Level Salt Lake Center
Sun 17:04:13 41.8925 -109.1172 143° Southeast 227 261 17,000  Level Salt Lake Center
Sun 17:05:15 41.8372 -109.0592 142° Southeast 227 261 17,000  Level Salt Lake Center
Sun 17:06:16 41.7889 -109.0100 143° Southeast 227 261 17,000  Level Salt Lake Center
Sun 17:07:18 41.7322 -108.9531 143° Southeast 227 261 17,000  Level Salt Lake Center
Sun 17:08:19 41.6833 -108.9050 144° Southeast 227 261 17,000  Level Salt Lake Center
Sun 17:09:21 41.6331 -108.8550 143° Southeast 231 266 17,000  Level Salt Lake Center
Sun 17:10:23 41.5772 -108.7967 142° Southeast 227 261 17,000  Level Salt Lake Center
Sun 17:11:24 41.5281 -108.7472 143° Southeast 229 264 17,000 -49 Level Salt Lake Center
Sun 17:12:26 41.4700 -108.6906 144° Southeast 231 266 16,900  Descending Salt Lake Center
Sun 17:13:27 41.4211 -108.6406 143° Southeast 231 266 17,000 49 Climbing Salt Lake Center
Sun 17:14:29 41.3725 -108.5897 142° Southeast 231 266 17,000  Level Salt Lake Center
Sun 17:15:31 41.3139 -108.5331 144° Southeast 232 267 17,000  Level Salt Lake Center
Sun 17:16:32 41.2642 -108.4822 142° Southeast 234 269 17,000  Level Salt Lake Center
Sun 17:17:34 41.2069 -108.4247 143° Southeast 233 268 17,000  Level Salt Lake Center
Sun 17:18:36 41.1592 -108.3761 143° Southeast 230 265 17,000  Level Salt Lake Center
Sun 17:19:38 41.1022 -108.3200 143° Southeast 228 262 17,000  Level Salt Lake Center
Sun 17:20:37 41.0517 -108.2722 145° Southeast 229 264 17,000 50 Level Denver Center
Sun 17:21:39 41.0022 -108.2239 144° Southeast 230 265 17,100 49 Climbing Denver Center
Sun 17:22:40 40.9453 -108.1681 143° Southeast 228 262 17,100  Level Denver Center
Sun 17:23:42 40.8975 -108.1203 143° Southeast 227 261 17,100  Level Denver Center
Sun 17:24:44 40.8394 -108.0642 144° Southeast 229 264 17,100  Level Denver Center
Sun 17:25:46 40.7906 -108.0175 144° Southeast 227 261 17,100  Level Denver Center
Sun 17:26:48 40.7417 -107.9703 144° Southeast 228 262 17,100  Level Denver Center
Sun 17:27:50 40.6858 -107.9125 142° Southeast 228 262 17,100  Level Denver Center
Sun 17:28:52 40.6372 -107.8667 144° Southeast 226 260 17,100  Level Denver Center
Sun 17:29:53 40.5825 -107.8139 144° Southeast 222 255 17,100  Level Denver Center
Sun 17:30:55 40.5358 -107.7669 143° Southeast 221 254 17,100  Level Denver Center
Sun 17:31:57 40.4825 -107.7161 144° Southeast 214 246 17,100  Level Denver Center
Sun 17:32:59 40.4381 -107.6733 144° Southeast 208 239 17,100  Level Denver Center
Sun 17:34:01 40.3869 -107.6239 144° Southeast 204 235 17,100  Level Denver Center
Sun 17:35:03 40.3433 -107.5817 144° Southeast 203 234 17,100  Level Denver Center
Sun 17:36:04 40.3003 -107.5408 144° Southeast 201 231 17,100  Level Denver Center
Sun 17:37:06 40.2489 -107.4925 144° Southeast 203 234 17,100  Level Denver Center
Sun 17:38:08 40.2058 -107.4514 144° Southeast 201 231 17,100  Level Denver Center
Sun 17:39:10 40.1567 -107.4031 143° Southeast 196 226 17,100  Level Denver Center
Sun 17:40:12 40.1147 -107.3628 144° Southeast 194 223 17,100  Level Denver Center
Sun 17:41:14 40.0647 -107.3156 144° Southeast 197 227 17,100  Level Denver Center
Sun 17:42:16 40.0228 -107.2747 143° Southeast 197 227 17,100  Level Denver Center
Sun 17:43:17 39.9803 -107.2350 144° Southeast 198 228 17,100  Level Denver Center
Sun 17:44:19 39.9369 -107.1939 144° Southeast 195 224 17,100  Level Denver Center
Sun 17:45:21 39.8944 -107.1531 144° Southeast 189 217 17,100 -532 Level Denver Center
Sun 17:46:23 39.8433 -107.1019 142° Southeast 194 223 16,000 -1,258 Descending Denver Center
Sun 17:47:25 39.8003 -107.0647 146° Southeast 187 215 14,500 -1,645 Descending Denver Center
Sun 17:48:27 39.7544 -107.0269 148° Southeast 181 208 12,600 -1,839 Descending Denver Center

Login

Don't have an account? Register now (free) for customized features, flight alerts, and more!